VE7PRT-1 Weather Reports


time (UTC)temp
C
wind
direction
speed
KPH
gust
KPH
rain 1hr
cm
rain 24hr
cm
rain mn
cm
humidity
%
barometer
mb
20260506142639 11 359 1.6 0.0 0.03 0.00 0.03 97 1019.3
20260506141239 11 359 0.0 0.0 0.00 0.00 0.00 97 1019.2
20260506135747 11 359 0.0 0.0 0.00 0.00 0.00 97 1018.9
20260506134514 11 359 0.0 0.0 0.00 0.00 0.00 97 1018.8
20260506133052 11 359 0.0 0.0 0.00 0.00 0.00 97 1018.6
20260506131738 11 359 0.0 0.0 0.00 0.00 0.00 97 1018.6
20260506130414 11 359 0.0 0.0 0.00 0.00 0.00 97 1018.3
20260506125140 11 359 0.0 0.0 0.00 0.00 0.00 97 1018.2
20260506123739 11 359 0.0 0.0 0.00 0.00 0.00 97 1018.2
20260506122444 11 359 0.0 0.0 0.00 0.00 0.00 97 1018.1
20260506121126 11 359 0.0 0.0 0.00 0.00 0.00 97 1018.2
20260506115654 11 359 0.0 0.0 0.00 0.00 0.00 97 1018.1
20260506114247 11 359 0.0 0.0 0.00 0.00 0.00 97 1018.0
20260506112807 11 359 0.0 0.0 0.00 0.00 0.00 96 1018.4
20260506111313 11 359 0.0 0.0 0.00 0.00 0.00 96 1018.3
20260506105901 11 359 0.0 0.0 0.00 0.00 0.00 96 1018.2
20260506104651 11 359 0.0 1.6 0.00 0.00 0.00 96 1018.2
20260506103204 11 359 0.0 0.0 0.00 0.00 0.00 96 1018.0
20260506101724 11 359 0.0 0.0 0.00 0.00 0.00 96 1017.9
20260506100439 11 359 0.0 0.0 0.00 0.00 0.00 96 1018.0
20260506095043 11 359 1.6 4.8 0.00 0.00 0.00 96 1018.2
20260506093824 11 359 0.0 0.0 0.00 0.00 0.00 96 1018.0
20260506092327 11 359 1.6 0.0 0.00 0.00 0.00 96 1017.9
20260506091114 11 359 0.0 0.0 0.00 0.00 0.00 96 1017.9
20260506085719 11 359 0.0 0.0 0.00 0.00 0.00 97 1017.8
20260506084501 11 359 0.0 0.0 0.00 0.00 0.00 96 1017.7
20260506084424 11 359 0.0 0.0 0.00 0.00 0.00 96 1017.7
20260506082949 11 359 0.0 0.0 0.00 0.00 0.00 96 1017.7
20260506081529 11 282 0.0 0.0 0.00 0.00 0.00 96 1017.8
20260506080324 11 283 0.0 0.0 0.00 0.00 0.00 96 1017.7
20260506072354 11 359 0.0 0.0 0.00 0.00 0.00 96 1017.7
20260506070854 11 359 1.6 0.0 0.00 0.00 0.00 96 1017.7
20260506061614 12 359 1.6 0.0 0.00 0.00 0.00 96 1017.4
20260506060117 12 359 0.0 0.0 0.00 0.00 0.00 95 1017.2
20260506050544 12 359 1.6 0.0 0.00 0.00 0.00 95 1017.1
20260506045107 12 359 0.0 0.0 0.00 0.00 0.00 95 1017.1
20260506043801 12 359 0.0 0.0 0.00 0.00 0.00 94 1017.0
20260506043727 12 359 0.0 0.0 0.00 0.00 0.00 94 1017.0
20260506042414 12 359 0.0 0.0 0.00 0.00 0.00 94 1017.0
20260506041047 12 359 0.0 0.0 0.00 0.00 0.00 94 1016.8
20260506035631 12 359 0.0 0.0 0.00 0.00 0.00 94 1016.8
20260506034344 12 359 1.6 3.2 0.00 0.00 0.00 94 1016.8
20260506033010 12 359 0.0 0.0 0.00 0.00 0.00 93 1016.8
20260506031539 12 359 0.0 0.0 0.00 0.00 0.00 93 1016.8
20260506030247 12 359 1.6 0.0 0.00 0.00 0.00 93 1016.7
20260506025039 12 359 0.0 0.0 0.00 0.00 0.00 93 1016.7
20260506023711 12 359 0.0 0.0 0.00 0.00 0.00 92 1016.7
20260506022412 12 359 0.0 0.0 0.00 0.00 0.00 92 1016.8
20260506021037 13 359 0.0 0.0 0.00 0.00 0.00 92 1016.8
20260506015714 13 359 1.6 0.0 0.00 0.00 0.00 92 1016.6
20260506014344 13 359 1.6 0.0 0.00 0.00 0.00 91 1016.4
20260506013014 13 359 1.6 0.0 0.00 0.00 0.00 90 1016.4
20260506011521 13 359 1.6 0.0 0.00 0.00 0.00 91 1016.5
20260506010134 13 359 1.6 0.0 0.00 0.00 0.00 90 1016.4
20260506004805 13 359 3.2 0.0 0.00 0.00 0.00 90 1016.5
20260506003334 13 359 3.2 0.0 0.00 0.00 0.00 90 1016.5
20260506001919 13 359 3.2 6.4 0.00 0.00 0.00 89 1016.7
20260506000515 13 359 1.6 0.0 0.00 0.00 0.00 90 1016.8
20260505235149 13 359 1.6 0.0 0.00 0.00 0.00 89 1017.0
20260505233714 13 359 1.6 0.0 0.00 0.00 0.00 89 1017.1
20260505232419 13 359 0.0 4.8 0.00 0.00 0.00 88 1017.2
20260505231019 13 359 1.6 0.0 0.00 0.00 0.00 89 1017.3
20260505225529 13 359 0.0 0.0 0.00 0.00 0.00 90 1017.4
20260505224047 13 359 1.6 0.0 0.00 0.00 0.00 92 1017.5
20260505222819 13 359 0.0 0.0 0.00 0.00 0.00 92 1017.5
20260505221424 13 359 1.6 0.0 0.00 0.00 0.00 92 1017.6
20260505220115 13 359 0.0 0.0 0.00 0.00 0.00 91 1017.8
20260505214739 13 359 1.6 0.0 0.00 0.00 0.00 91 1017.8
20260505213324 13 359 0.0 1.6 0.00 0.00 0.00 92 1017.8
20260505212047 13 359 1.6 0.0 0.00 0.00 0.00 91 1017.8
20260505210827 13 359 1.6 0.0 0.00 0.00 0.00 90 1017.9
20260505205501 13 359 0.0 0.0 0.00 0.00 0.00 91 1017.8
20260505204244 13 359 0.0 0.0 0.00 0.00 0.00 92 1017.6
20260505202926 13 359 0.0 0.0 0.00 0.00 0.00 92 1017.6
20260505201603 13 359 1.6 1.6 0.00 0.00 0.00 92 1017.6
20260505200354 13 359 1.6 4.8 0.00 0.00 0.00 91 1017.5
20260505195134 13 359 1.6 0.0 0.00 0.00 0.00 92 1017.4
20260505193818 13 359 1.6 0.0 0.00 0.00 0.00 92 1017.4
20260505192606 13 359 1.6 0.0 0.00 0.00 0.00 92 1017.2
20260505191327 13 359 0.0 3.2 0.00 0.00 0.00 93 1017.2
20260505185854 12 359 1.6 0.0 0.00 0.00 0.00 93 1017.1
20260505184446 12 359 1.6 4.8 0.00 0.00 0.00 94 1016.9
20260505184414 12 359 1.6 4.8 0.00 0.00 0.00 94 1016.9
20260505183124 12 359 1.6 4.8 0.00 0.00 0.00 94 1016.9
20260505181639 12 359 1.6 4.8 0.00 0.00 0.00 94 1016.8
20260505180506 12 359 1.6 0.0 0.00 0.00 0.00 94 1016.7
20260505180434 12 359 1.6 0.0 0.00 0.00 0.00 94 1016.7
20260505175233 12 359 1.6 0.0 0.00 0.00 0.00 95 1016.7
20260505173844 12 359 1.6 0.0 0.00 0.00 0.00 95 1016.6
20260505172347 12 359 0.0 0.0 0.00 0.00 0.00 95 1016.5
20260505171032 11 359 0.0 0.0 0.00 0.00 0.00 95 1016.4
20260505165738 11 359 0.0 0.0 0.00 0.00 0.00 95 1016.4
20260505164439 11 359 0.0 0.0 0.00 0.00 0.00 95 1016.4
20260505163234 11 359 0.0 0.0 0.00 0.00 0.00 96 1016.3
20260505161839 11 359 0.0 0.0 0.00 0.00 0.00 96 1016.2
20260505160519 11 359 0.0 0.0 0.00 0.00 0.00 96 1016.1
20260505152427 11 359 0.0 0.0 0.00 0.00 0.00 96 1016.0
20260505151059 11 359 0.0 0.0 0.00 0.00 0.00 96 1016.0